Location: Dammartin
(48.9032°N, 1.6195°E)
Time: 12:05:56
(UTC+00:00)

Cosmos 1980 Rocket - Pass Details

Date: 03 February 2023
Orbit: 828 x 851 km, 71.0° (Epoch: 25 March)

Event Time Altitude Azimuth Distance (km) Brightness Sun altitude
Rises 18:43:17 0° 254° (WSW) 3,393 6.9 -18.2°
Reaches altitude 10° 18:46:18 10° 270° (W) 2,466 5.9 -18.7°
Maximum altitude 18:50:36 22° 319° (NW) 1,790 4.3 -19.4°
Drops below altitude 10° 18:54:55 10° 9° (N) 2,484 4.5 -20.1°
Enters shadow 18:56:57 - 21° (NNE) 3,088 4.9 -20.4°
